Regional Weather Roundup
Issued by NWS

Home | Current Version | Previous Version | Graphics & Text | Print | Product List | Glossary Off
Versions: 1 2 3 4 5 6 7 8 9 10 11 12 13 14 15 16 17 18 19 20 21 22 23 24 25 26 27 28 29 30 31 32 33 34 35 36 37 38 39 40 41 42 43 44 45 46 47 48 49 50

000
ASUS43 KMPX 231401
RWRMN
WEATHER ROUNDUP FOR MINNESOTA
NATIONAL WEATHER SERVICE TWIN CITIES/CHANHASSEN MN
900 AM CDT SAT SEP 23 2017


NOTE: "FAIR" INDICATES FEW OR NO CLOUDS BELOW 12,000 FEET WITH NO
SIGNIFICANT WEATHER AND/OR OBSTRUCTIONS TO VISIBILITY. N/A MEANS
CURRENT SKY AND/OR WEATHER CONDITIONS ARE NOT AVAILABLE.

MNZ060>063-068>070-231500-
   Twin Cities Metro

CITY           SKY/WX    TMP DP  RH WIND       PRES   REMARKS
TWIN CITIES    MOSUNNY   77  69  76 S8        29.97R
ST PAUL        SUNNY     75  70  84 E10       29.97R
CRYSTAL        PTSUNNY   76  66  71 S13G18    29.95R
BLAINE         PTSUNNY   79  70  73 S9        29.96R
LAKEVILLE      SUNNY     75  68  78 S6        29.98R
EDEN PRAIRIE   PTSUNNY   76  69  79 SW9       29.96R
SOUTH ST PAUL  SUNNY     76  67  74 S7        29.97R
LAKE ELMO      FAIR      73  70  88 S7        29.99R
$$
MNZ001>005-007-008-013>017-022>024-027-028-231500-
   Northwest Minnesota

CITY           SKY/WX    TMP DP  RH WIND       PRES   REMARKS
BEMIDJI        LGT RAIN  53  52  97 NW5       29.96F
HALLOCK          N/A     52  48  87 NW7       30.01R
ROSEAU         CLOUDY    52  48  87 NW8       29.97R
WARROAD        CLOUDY    52  48  87 W8        29.97R
CROOKSTON      CLOUDY    52  48  87 N9        30.01S
FOSSTON        CLOUDY    48  48 100 NW14      29.97F FOG
DETROIT LAKES  CLOUDY    50  50 100 NW6       30.00R
MOORHEAD       CLOUDY    52  48  87 N12       30.01R
PARK RAPIDS    CLOUDY    56  53  90 N10       29.90F
MAHNOMEN       CLOUDY    49  49  98 N8        29.99R
$$
MNZ006-009>011-018-025>026-231500-
   North Central Minnesota

CITY           SKY/WX    TMP DP  RH WIND       PRES   REMARKS
BAUDETTE       CLOUDY    54  54 100 W8        29.95R
FLAG ISLAND    CLOUDY    54  52  94 NW10      29.92R
INTL FALLS     CLOUDY    57  56  96 W8        29.93R
WASKISH        CLOUDY    54  54 100 W8        29.97R
BIG FORK       LGT RAIN  59  57  94 NW5       29.94S
LONGVILLE      CLOUDY    61  59  94 CALM      29.94S
GRAND RAPIDS   CLOUDY    66  64  93 CALM      29.94F
CRANE LAKE     CLOUDY    68  64  88 SW3       29.91S
ORR            DRIZZLE   64  61  88 W10       29.91R
COOK           LGT RAIN  66  64  94 SW7       29.94R
WALKER         LGT RAIN  55  54  97 W10       29.98R
$$
MNZ012-019>021-037-231500-
   Northeast Minnesota

CITY           SKY/WX    TMP DP  RH WIND       PRES   REMARKS
DULUTH         CLOUDY    72  69  90 SW8       29.94R
ELY            CLOUDY    66  64  94 SW9G16    29.92R
HIBBING        CLOUDY    65  64  97 CALM      29.94R
EVELETH        CLOUDY    66  62  86 SW6       29.95S
DULUTH HARBOR  CLOUDY    66  64  94 S6        29.92S
TWO HARBORS    CLOUDY    73  68  83 CALM      29.91R
GRAND MARAIS     N/A     65  65 100 VRB3      29.90R
$$
MNZ029>031-032-039>041-046>048-054>057-064-231500-
   West Central Minnesota

CITY           SKY/WX    TMP DP  RH WIND       PRES   REMARKS
FERGUS FALLS   LGT RAIN  52  52 100 NW7       29.98S
WHEATON        LGT RAIN  54  52  94 N9        29.98F
MORRIS         CLOUDY    55  55 100 NW9       29.97R
ALEXANDRIA     CLOUDY    59  57  93 N3        29.96R
ELBOW LAKE     CLOUDY    54  54  99 W6        29.99R
WADENA         CLOUDY    54  54 100 CALM      29.94S
GLENWOOD       CLOUDY    59  57  94 CALM      29.96R
APPLETON       CLOUDY    59  54  82 N6        29.98R
BENSON         CLOUDY    59  55  88 NW6       29.98R
ORTONVILLE     CLOUDY    55  54  94 N9        29.95F
MADISON        CLOUDY    61  61 100 N8        29.97S
WILLMAR        FAIR      64  61  88 SE5       29.95R
$$
MNZ033>034-036-042>043-049>051-058-059-231500-
   Central Minnesota

CITY           SKY/WX    TMP DP  RH WIND       PRES   REMARKS
ST CLOUD       PTSUNNY   72  69  90 CALM      29.94S
SAUK CENTRE    PTSUNNY   62  60  94 CALM      29.95R
PAYNESVILLE    CLOUDY    65  62  90 CALM      29.95R
AITKIN         CLOUDY    70  64  83 CALM      29.93R
PINE RIVER     CLOUDY    57  55  94 CALM      29.98R
BRAINERD       CLOUDY    66  64  93 W6        29.95R
STAPLES        CLOUDY    55  55 100 NW5       29.96R
LITTLE FALLS   CLOUDY    68  61  77 CALM      29.94S
LITCHFIELD     CLOUDY    70  66  88 CALM      29.96S
BUFFALO        CLOUDY    73  67  79 S5        29.97R
MAPLE LAKE     CLOUDY    74  70  88 CALM      29.97R
HUTCHINSON     CLOUDY    71  68  91 CALM      29.98R
$$
MNZ037-044-045-052-053-231500-
   East Central Minnesota

CITY           SKY/WX    TMP DP  RH WIND       PRES   REMARKS
PRINCETON      CLOUDY    75  70  83 CALM      29.95R
MORA           CLOUDY    73  66  78 S5        29.97R
RUSH CITY      CLOUDY    74  68  79 S8        29.95S
MOOSE LAKE     CLOUDY    72  68  88 SW3       29.93S
HINCKLEY       FAIR      73  70  88 S6        29.95S
CLOQUET        CLOUDY    73  66  78 SW6       29.95R
MCGREGOR       PTSUNNY   70  64  83 CALM      29.94F
$$
MNZ071>073-080-081-089-090-097-098-231500-
   Southwest Minnesota

CITY           SKY/WX    TMP DP  RH WIND       PRES   REMARKS
MONTEVIDEO     CLOUDY    61  61 100 N3        29.96S
GRANITE FALLS  CLOUDY    62  57  86 CALM      29.97S
CANBY          CLOUDY    59  56  90 CALM      29.99R
MARSHALL       PTSUNNY   59  55  87 S3        29.97S
REDWOOD FALLS  CLOUDY    63  57  81 E3        29.96S
OLIVIA         CLOUDY    63  57  82 E5        29.95S
PIPESTONE      CLOUDY    63  57  82 E7        29.97S
WORTHINGTON    CLOUDY    71  68  90 CALM      29.99R
JACKSON        PTSUNNY   72  66  83 CALM      29.99R
TRACY          CLOUDY    60  57  90 CALM      29.99R
SLAYTON        CLOUDY    59  49  69 N7        29.99S HAZE
$$
MNZ065>067-074>077-082>085-091>093-231500-
   South Central Minnesota

CITY           SKY/WX    TMP DP  RH WIND       PRES   REMARKS
MANKATO        SUNNY     74  68  81 SW8       29.98R
NEW ULM        CLOUDY    72  66  83 NW5       29.96R
ST JAMES       CLOUDY    73  66  78 S5        29.98R
FAIRMONT       MOSUNNY   74  68  81 S10       29.98R
FARIBAULT      MOSUNNY   73  68  83 S5        29.99R
OWATONNA       MOSUNNY   73  66  78 S6        30.00R
WASECA         MOSUNNY   73  66  78 S9        30.00R
ALBERT LEA     SUNNY     77  70  78 S7        30.00S
$$
MNZ078>079-086>088-094>096-231500-
   Southeast Minnesota

CITY           SKY/WX    TMP DP  RH WIND       PRES   REMARKS
ROCHESTER      SUNNY     75  68  78 S10       30.03R
RED WING       PTSUNNY   75  64  69 CALM      29.98R
STANTON        MOSUNNY   75  67  76 S5        29.97R
DODGE CENTER   SUNNY     75  64  69 S10G20    30.01S
WINONA         SUNNY     77  66  69 CALM      30.02R
AUSTIN         SUNNY     73  66  78 S10       30.01S
PRESTON        SUNNY     74  65  75 SW10      30.05R
$$
ABBREVIATIONS USED IN REMARKS
   TC - TEMPERATURES IN CELSIUS
  WCI - WIND CHILL INDEX
   HX - HEAT INDEX
  VSB - VISIBILITY
$$




USA.gov is the U.S. government's official web portal to all federal, state and local government web resources and services.